Theta_e
319 319 320 320 319 321 320 322 324 325 325 325 325 325 324 323 324 324 322 320 321 320 316 314 313 313 314 313 312 314 314 316 320 321 320 321 321 322 323 324 324 324 325 325 326 327 328 328 331 332 333 333 334 335 336 336 335 336 336 335 335 334 333 334 334 333 331 329 326 326 328 329 329 328 328 328 328 328 327 325 325 326 326 327 328
317 318 320 320 320 322 321 321 324 325 325 325 325 325 325 324 325 326 323 320 319 319 317 315 313 314 313 313 313 313 313 313 316 320 319 320 321 321 322 323 323 323 324 324 325 326 327 327 328 329 330 330 330 331 333 335 336 337 336 336 335 335 334 334 333 333 331 330 327 328 329 329 329 328 328 328 327 327 327 325 325 326 326 326 328
317 318 320 321 321 322 321 321 323 325 325 325 324 325 325 325 324 326 324 321 318 319 319 316 315 315 315 316 314 313 315 316 318 320 319 320 320 320 320 321 321 321 323 324 324 325 325 326 327 327 328 328 328 328 330 333 335 336 335 336 336 335 334 334 333 333 331 331 329 329 329 329 329 328 329 328 328 327 327 326 325 326 326 326 327
318 319 321 323 323 323 322 322 324 325 324 324 325 324 325 325 324 326 324 322 319 317 317 316 316 318 317 318 318 317 317 318 319 320 319 319 318 318 319 319 319 320 321 322 323 323 323 324 325 326 326 327 328 328 329 331 332 333 334 335 336 335 334 334 334 333 331 331 330 328 329 329 328 329 329 328 328 328 327 327 326 326 326 326 327
319 321 323 324 324 323 323 323 323 325 324 324 325 324 325 325 324 326 324 322 320 316 317 319 320 321 322 321 320 319 318 316 315 315 316 317 318 318 317 317 318 318 319 320 321 321 322 323 324 324 326 326 327 327 328 329 331 332 333 334 334 334 334 334 333 332 331 331 332 330 329 329 328 328 330 330 329 328 327 327 326 327 326 326 327
321 322 324 324 323 322 323 322 323 325 324 325 326 325 326 325 324 326 324 322 320 317 317 320 320 320 319 318 316 316 315 315 314 314 315 316 317 318 317 316 317 317 318 318 319 320 321 322 322 323 324 325 326 327 327 328 329 330 332 332 333 333 333 333 333 331 330 330 331 330 329 329 329 328 329 330 330 329 328 328 327 327 327 326 327
321 322 322 323 322 321 322 322 322 324 325 325 327 327 326 325 325 326 324 322 321 318 316 318 319 317 316 316 315 314 315 316 316 316 316 316 316 317 317 317 316 316 317 317 318 319 319 320 321 322 323 324 325 326 327 328 329 330 330 331 332 333 333 334 333 332 330 330 330 329 328 329 329 328 328 328 329 330 329 329 328 328 328 327 327
322 322 321 322 322 321 322 322 322 323 324 325 326 328 327 325 325 327 325 322 321 318 315 317 318 317 317 317 316 315 316 317 317 316 315 315 316 316 317 317 317 316 316 316 317 317 318 319 319 320 321 322 323 324 325 326 328 329 330 331 331 332 332 331 331 332 332 331 331 329 329 329 328 327 328 328 329 330 330 330 329 328 328 328 327
322 322 321 322 322 322 321 322 321 322 323 325 328 329 327 326 326 327 324 322 321 318 315 316 318 317 317 317 316 316 316 317 316 315 315 315 316 316 316 317 317 317 317 316 316 316 317 318 318 319 320 321 322 322 323 325 326 328 329 331 330 331 331 329 329 331 332 333 332 330 329 329 328 326 327 328 328 329 329 331 330 330 329 328 327
320 320 321 321 322 321 321 321 320 320 323 328 330 329 328 327 327 327 324 322 321 319 316 317 316 316 316 317 317 317 316 316 316 316 316 315 315 316 316 316 316 316 316 316 316 316 316 317 317 318 318 319 320 321 322 323 324 326 328 329 330 331 331 332 332 333 332 332 332 331 329 329 329 327 327 328 328 329 329 330 330 330 330 328 328
319 318 320 321 321 321 320 320 320 322 327 329 329 329 328 328 328 327 324 323 322 319 317 318 317 316 317 317 317 317 317 316 316 317 317 315 315 315 315 315 314 314 315 316 316 316 316 316 317 317 318 318 318 319 320 322 323 325 326 328 330 331 332 333 333 333 333 332 332 332 330 329 328 328 329 328 328 329 328 329 329 328 329 329 329
317 317 319 321 321 321 321 321 322 327 330 330 329 329 328 328 327 326 325 323 322 319 318 318 317 316 317 317 317 317 317 317 317 317 316 316 316 315 314 314 314 314 315 315 315 316 315 315 315 316 317 317 318 318 319 320 322 323 324 325 328 330 331 333 333 333 332 332 331 331 330 329 329 329 329 329 330 330 330 330 328 327 328 328 328
316 317 319 320 322 324 324 324 326 330 331 329 328 329 328 327 327 326 325 323 322 320 318 317 317 317 317 316 316 317 317 317 316 316 316 316 315 315 314 313 313 313 314 314 313 314 314 314 315 315 316 316 317 318 319 319 320 322 323 324 325 328 330 332 332 331 331 332 331 330 330 330 330 330 330 330 330 331 332 331 330 328 328 328 326
315 316 317 320 322 326 326 326 327 329 330 329 328 329 328 327 327 326 324 323 321 319 318 317 317 317 316 316 315 315 316 316 315 315 316 315 314 314 314 313 313 312 313 313 313 313 313 313 314 315 315 315 316 317 318 318 319 320 321 322 323 325 327 330 331 330 330 331 331 331 330 330 331 331 331 330 330 331 332 331 331 331 329 328 326
315 316 317 318 321 323 323 323 324 326 328 328 328 328 328 327 326 326 324 323 322 319 318 317 317 317 316 315 315 314 314 315 314 314 314 314 313 313 313 313 313 312 313 313 313 313 313 313 312 313 314 314 315 315 316 317 318 319 319 320 322 323 324 327 329 330 331 331 330 330 330 330 330 330 330 330 329 330 330 330 331 331 329 329 327
314 316 316 318 319 320 320 321 322 323 325 327 328 328 327 326 326 325 324 323 322 319 317 317 316 316 316 314 314 314 313 313 313 312 313 313 313 313 313 313 313 313 313 312 313 312 312 312 312 312 313 313 314 315 315 316 317 318 319 319 321 322 323 324 326 329 331 331 331 330 330 330 329 329 329 330 330 330 330 330 331 330 331 330 328
314 315 315 316 318 319 320 320 321 322 322 325 327 328 327 326 325 324 323 323 321 319 317 317 317 316 315 315 314 313 312 312 312 312 313 312 312 312 312 312 312 312 312 312 313 312 312 312 312 311 312 312 313 313 314 315 316 317 318 318 319 320 322 322 324 325 328 330 330 330 330 330 330 329 328 329 329 330 331 330 330 330 331 330 329
314 314 314 315 318 319 319 318 319 319 321 324 328 328 327 326 325 324 323 322 321 318 316 316 316 316 315 314 314 313 312 312 312 312 312 312 312 312 311 312 311 312 312 312 312 312 312 312 311 311 311 311 312 312 313 314 315 316 317 318 318 319 320 321 322 324 324 327 328 329 330 330 330 330 329 329 329 329 330 330 330 330 330 330 330
314 313 314 315 317 318 317 317 316 318 322 327 328 327 326 325 324 323 322 321 321 318 316 316 315 315 315 314 314 313 312 312 312 312 311 311 311 311 310 310 310 310 310 310 310 311 311 311 310 310 310 310 310 311 312 313 314 315 316 317 318 319 319 320 321 322 323 324 326 328 329 329 329 330 330 330 329 328 328 329 330 330 330 329 330
314 314 314 315 316 316 316 316 315 319 325 327 326 325 324 323 322 321 320 321 320 317 316 315 315 314 314 314 314 313 312 312 312 311 311 311 311 310 309 310 309 309 309 309 309 310 310 310 310 309 309 309 309 310 311 312 313 314 315 316 317 318 319 319 320 321 321 323 324 326 327 328 329 330 329 330 330 329 327 327 326 328 329 329 329
314 314 314 315 315 314 315 315 314 320 325 324 323 322 321 321 320 320 320 321 319 317 315 315 314 314 314 314 313 313 312 312 311 311 311 310 310 309 309 309 309 309 308 308 308 308 308 309 309 309 309 309 309 309 310 310 311 313 314 315 316 317 318 318 319 320 320 321 322 324 325 326 328 329 329 329 329 330 329 327 325 326 328 329 329
315 315 315 315 315 315 315 315 316 320 322 322 321 320 319 320 319 319 319 320 319 317 315 315 314 314 314 313 313 313 312 311 311 311 311 310 309 309 309 309 308 308 308 307 307 307 307 307 308 308 308 308 309 309 309 310 310 311 312 314 314 316 317 318 318 319 319 320 320 322 323 324 326 328 329 329 329 330 331 329 328 327 326 327 328
315 315 315 315 315 315 315 316 317 319 319 319 320 319 319 319 319 318 319 319 318 317 315 314 314 314 314 313 313 313 312 311 311 311 310 310 309 309 309 309 308 308 307 307 306 306 306 306 307 307 307 308 308 308 308 308 309 310 311 312 313 314 315 317 318 318 319 319 319 320 321 322 324 325 327 329 330 330 330 330 330 329 328 326 326
315 315 315 315 315 314 315 317 317 318 318 319 319 318 318 319 318 317 318 318 317 316 315 314 314 314 313 313 313 312 311 311 311 310 310 309 310 309 309 309 308 308 307 306 306 306 305 306 306 306 307 307 307 308 307 308 308 309 310 311 312 312 314 315 316 318 318 319 319 320 320 321 322 324 326 328 330 329 329 329 330 331 330 328 327
315 315 315 315 315 315 315 317 316 315 317 318 319 317 317 318 317 316 317 317 316 315 314 313 313 313 313 313 312 311 311 311 310 310 310 310 309 309 309 308 308 307 307 306 306 305 305 305 305 306 306 306 307 307 307 307 307 308 309 310 310 312 312 313 314 316 317 318 319 320 320 320 321 322 324 326 328 329 330 330 330 330 331 331 329
315 315 316 315 314 315 316 316 314 313 315 317 317 316 316 317 317 316 316 316 315 315 314 313 313 313 313 312 311 310 310 310 310 309 309 309 308 308 307 307 307 306 306 306 305 305 305 305 305 305 306 306 306 307 307 307 307 308 308 309 309 310 311 312 313 314 316 317 318 319 320 320 321 321 323 324 325 328 330 331 330 329 330 331 331
316 315 315 315 316 316 316 314 314 314 314 315 315 315 315 316 316 315 315 315 315 314 313 312 312 312 312 311 310 310 310 310 309 308 308 308 307 307 306 306 306 306 305 305 305 305 305 305 305 305 305 306 306 306 306 307 307 307 308 308 308 309 310 311 312 313 314 316 317 318 319 319 320 321 322 322 323 326 330 331 330 329 330 330 330
315 316 315 315 316 316 315 315 316 315 314 314 314 314 314 315 315 314 314 315 315 314 313 312 311 311 310 309 309 309 309 309 308 307 307 307 306 306 306 306 305 305 304 304 304 304 305 305 305 305 305 305 305 305 306 306 306 307 307 308 308 308 309 310 311 312 313 314 316 317 318 318 319 321 321 322 323 324 327 329 329 330 331 329 328
314 315 316 316 316 316 316 316 317 315 314 313 313 312 313 314 314 313 313 314 314 313 312 311 311 310 309 308 309 309 308 307 307 306 306 306 305 305 305 305 304 304 304 304 304 304 304 304 304 304 304 304 304 305 305 305 306 306 307 307 307 308 309 309 310 311 312 313 315 316 317 318 318 319 320 321 322 323 324 327 329 330 331 329 328
318 316 315 315 315 315 316 318 318 315 313 312 311 311 312 313 313 312 313 314 313 312 311 310 309 309 309 308 308 308 307 306 306 306 306 305 305 304 304 304 304 303 304 304 304 304 304 304 304 304 304 304 304 304 304 304 305 305 305 306 307 307 308 308 309 310 311 312 313 315 316 317 318 318 319 320 320 322 322 324 326 329 330 329 328
317 318 314 314 315 314 315 318 316 313 312 311 310 310 311 312 312 312 312 312 312 310 310 309 308 308 308 308 307 306 306 306 306 305 305 305 304 304 303 303 303 303 303 303 303 303 303 303 303 303 303 303 303 303 303 303 303 303 303 304 304 305 306 307 307 309 310 310 311 313 315 316 318 318 318 319 319 320 321 322 323 326 328 328 328
315 316 315 314 315 315 315 316 315 312 311 311 310 310 310 311 311 311 311 310 310 309 308 308 307 307 307 307 306 306 306 305 305 305 304 304 303 303 303 302 302 302 302 302 302 302 302 302 302 302 302 303 303 303 302 302 302 302 302 302 302 303 303 304 305 306 308 309 310 311 313 315 317 318 318 319 319 319 319 320 321 323 325 327 329
314 315 316 315 315 314 315 314 313 312 311 310 310 309 310 311 311 310 310 308 308 308 307 307 307 307 306 306 305 305 305 304 304 304 303 303 303 302 302 301 301 301 300 300 300 301 301 301 301 301 301 301 302 302 302 302 301 301 301 301 301 301 302 302 303 304 305 307 309 310 311 314 316 318 318 318 319 320 320 320 320 320 323 325 326
315 316 316 314 313 314 313 313 312 311 310 309 310 309 309 310 310 309 308 307 307 307 307 307 307 306 305 305 304 304 304 304 304 303 302 302 302 302 301 301 300 300 299 299 299 299 299 299 300 300 300 300 301 301 301 300 300 300 300 300 300 300 301 301 301 302 303 304 306 308 310 312 314 317 318 319 319 320 320 320 320 320 321 324 326
317 316 315 313 313 313 313 313 312 311 310 309 309 309 309 310 309 308 307 306 307 307 307 307 307 306 305 304 304 304 304 304 303 303 302 301 301 301 300 300 299 299 299 298 298 298 298 298 298 299 299 299 299 299 299 299 299 299 299 298 298 299 299 300 300 301 301 302 303 305 307 310 312 315 317 318 319 319 320 321 322 322 321 324 325
316 316 313 313 314 313 314 313 312 311 310 309 309 309 309 309 308 307 306 306 306 306 307 306 306 305 304 303 303 303 303 303 302 302 301 301 301 300 300 299 299 298 298 298 298 298 298 298 298 298 298 298 298 298 298 298 298 298 298 297 298 298 299 299 300 300 300 301 302 303 304 307 310 312 315 317 319 320 320 321 322 324 324 325 325
315 314 313 314 314 314 315 314 313 312 311 310 309 309 309 308 307 307 306 306 306 306 306 305 305 304 303 303 303 303 303 303 302 302 301 301 301 300 299 299 299 298 298 298 297 297 297 297 297 297 297 297 298 297 298 297 297 297 297 297 297 298 298 298 299 299 300 300 301 302 303 304 307 309 312 315 318 319 320 321 322 324 325 325 326
314 314 315 314 314 314 314 313 312 312 310 310 309 309 309 307 306 306 306 306 306 306 306 305 304 303 302 302 302 302 303 303 302 301 301 300 300 299 299 299 298 298 298 297 297 297 297 297 297 297 297 297 297 297 297 297 297 297 296 297 297 297 298 298 298 299 299 300 300 301 302 303 305 308 310 313 316 318 319 320 321 322 324 325 325
314 314 314 313 313 312 312 311 311 310 310 309 308 308 308 307 306 306 306 306 306 306 305 304 303 302 301 301 302 302 302 302 302 301 300 300 300 299 299 298 298 297 297 297 296 296 296 296 296 296 296 295 296 296 296 296 296 296 296 296 296 297 297 298 298 298 299 300 300 301 301 302 303 306 309 311 314 316 318 320 321 322 323 324 324
313 312 312 313 313 311 310 310 310 310 309 309 308 308 307 306 306 306 306 306 306 305 304 303 302 301 301 301 302 302 302 302 302 301 300 300 299 299 298 298 297 297 296 296 296 296 295 296 295 295 295 295 295 295 295 296 296 296 296 296 296 297 297 297 298 298 299 300 300 301 301 302 302 304 306 308 311 315 317 319 321 322 322 323 323
311 311 311 312 311 309 309 310 309 309 309 308 308 307 306 306 306 306 306 306 305 304 303 302 301 301 301 301 301 302 301 301 301 300 299 299 299 298 298 297 297 296 296 295 295 295 295 295 294 294 294 294 295 295 295 296 296 296 296 296 296 296 297 298 298 298 299 300 301 302 302 303 303 304 305 306 309 312 314 317 320 321 321 322 322
310 310 309 309 309 309 309 309 309 308 309 308 307 306 306 306 306 306 306 305 304 303 302 301 301 301 301 301 301 301 301 301 301 300 299 298 298 298 297 297 296 295 295 295 294 294 294 294 294 294 294 294 294 295 295 296 296 296 296 296 296 296 297 298 299 299 299 300 301 302 303 304 304 305 307 307 308 310 312 314 318 321 321 322 320
310 308 307 307 308 309 309 309 308 308 308 308 307 306 306 306 306 306 305 304 303 301 301 301 301 301 301 301 301 301 301 300 300 299 299 298 298 297 297 296 296 295 294 294 293 293 293 293 293 293 293 293 293 294 295 295 296 296 295 295 295 295 296 297 299 299 300 300 302 303 304 306 307 307 308 309 309 310 311 314 318 321 320 320 319
309 308 307 307 308 308 309 309 307 307 308 307 306 306 306 306 306 305 304 303 302 301 301 301 301 301 301 300 300 300 300 300 299 299 298 297 297 297 296 296 295 294 293 293 292 292 292 292 292 292 292 292 293 293 294 295 295 295 295 295 295 295 296 297 298 299 300 301 302 304 306 307 309 310 310 311 312 312 313 316 319 320 320 319 317
307 308 307 307 307 307 309 309 307 306 307 307 306 306 306 306 306 304 303 302 301 301 301 301 301 301 300 299 299 299 299 299 298 298 298 297 297 296 296 295 295 294 293 292 292 291 291 291 291 291 291 291 292 293 294 294 295 295 295 295 296 297 297 297 298 299 300 300 302 305 308 309 311 312 313 314 314 315 316 318 319 319 318 317 315
307 308 307 307 307 307 309 308 307 306 306 306 305 306 306 305 305 303 302 302 301 301 301 301 300 300 299 299 299 299 298 297 298 298 298 297 296 296 295 294 294 293 292 291 291 290 290 290 290 291 291 291 292 292 293 294 294 295 295 295 296 297 298 299 298 299 300 300 301 303 307 311 313 314 316 316 316 316 317 318 318 317 315 314 313
307 307 307 307 307 308 308 308 307 306 306 305 305 305 305 304 303 302 301 302 301 300 301 300 300 299 299 299 298 297 297 297 297 297 297 296 296 295 295 294 294 293 292 291 291 290 290 290 290 290 290 290 291 291 292 293 294 294 294 293 294 297 299 300 299 299 299 300 301 303 306 311 313 314 314 314 314 314 315 316 315 313 312 312 311
307 307 307 307 308 308 308 308 307 306 305 305 305 305 305 304 302 302 302 301 300 300 300 300 299 299 299 298 298 298 298 297 297 297 297 296 296 295 295 294 294 293 292 291 291 290 290 289 289 289 290 290 291 291 291 291 291 291 291 292 293 296 299 300 300 300 300 300 302 304 306 308 310 309 308 308 308 309 311 312 311 309 310 310 309
307 307 307 308 308 308 308 308 307 305 305 304 304 305 304 303 302 302 302 301 300 300 300 300 300 299 299 298 298 299 299 298 297 297 296 296 295 295 295 294 293 293 292 291 290 290 289 289 289 289 289 289 290 290 290 290 290 291 291 292 293 296 299 300 300 301 301 301 302 304 304 304 305 305 304 303 304 304 306 306 306 306 306 305 305
307 307 307 307 308 307 308 308 307 306 305 304 304 304 304 303 302 302 301 301 301 301 301 300 300 300 299 298 299 299 299 298 297 297 296 296 295 295 294 294 293 292 292 291 291 290 290 289 289 289 289 289 289 289 290 290 291 292 293 294 295 297 299 301 301 302 302 302 302 302 302 301 301 302 301 301 301 302 302 302 302 302 302 302 302
306 307 307 307 307 307 307 308 307 306 304 304 304 304 304 302 301 301 301 301 301 301 301 301 301 300 299 299 299 299 299 298 297 297 297 296 296 295 294 293 293 292 292 291 291 290 290 289 289 289 289 289 289 289 290 291 291 292 293 295 297 299 300 300 301 302 302 301 300 300 299 299 300 300 299 299 300 300 300 300 299 299 299 299 299
Wind_Speed
12 15 18 21 21 20 19 17 17 16 15 14 13 12 11 10 9 8 6 4 3 2 3 3 4 4 5 6 7 7 7 6 2 2 2 2 2 3 3 3 3 4 4 4 5 5 7 9 11 13 13 12 13 15 17 18 18 16 16 17 18 19 18 16 14 12 14 13 11 11 12 14 14 15 16 16 17 17 18 19 18 17 16 16 16
13 13 16 20 21 21 21 18 18 18 17 16 15 13 12 11 10 9 8 6 4 3 3 3 4 4 4 5 6 6 7 6 4 3 3 2 2 2 2 3 3 4 4 4 5 5 6 7 8 10 12 12 14 15 15 17 17 17 18 20 20 20 20 19 17 13 15 15 11 10 11 14 15 16 17 18 18 18 18 20 19 18 18 16 16
12 11 14 19 21 22 22 19 19 19 18 17 16 14 13 12 11 10 9 8 6 5 4 4 3 4 4 5 6 6 5 5 3 2 2 2 1 1 1 2 4 4 5 4 5 5 6 7 7 8 10 11 13 14 16 17 18 20 23 23 20 20 21 21 20 16 16 16 11 9 8 9 11 14 18 20 19 19 19 20 19 19 18 18 17
10 10 13 17 20 22 22 20 20 19 18 17 17 16 15 14 12 11 10 9 8 7 6 5 4 3 4 3 4 4 3 4 3 2 2 3 2 2 2 3 5 5 6 6 6 6 6 7 8 9 10 11 11 12 14 16 18 21 24 23 21 21 20 20 19 16 16 15 10 8 8 8 8 10 15 19 20 20 21 21 19 19 19 19 18
9 11 13 15 18 21 22 21 20 19 18 18 18 17 16 15 14 13 12 10 9 9 8 7 5 4 3 2 2 2 3 4 4 4 4 3 3 2 3 4 5 6 6 6 7 7 7 8 8 9 10 12 12 13 14 14 16 18 21 24 23 23 22 21 20 19 21 20 14 9 7 6 7 9 12 14 19 21 21 22 21 19 19 19 19
9 11 13 14 17 20 22 22 21 20 19 18 18 18 16 15 15 14 13 11 11 10 9 7 5 4 4 2 2 1 2 4 4 3 3 3 3 3 3 4 5 6 7 7 7 7 8 8 8 9 10 11 13 13 14 13 14 16 19 22 23 25 26 21 19 22 27 27 24 20 16 11 10 10 8 8 14 20 20 21 22 21 21 19 19
9 10 13 14 17 19 20 21 22 21 20 19 17 17 17 16 15 16 13 12 12 11 10 8 6 5 4 3 2 1 2 3 2 2 1 2 3 3 4 4 4 6 7 7 8 8 8 9 9 10 11 11 13 14 14 14 15 16 17 19 21 24 27 25 21 21 25 29 32 32 26 22 19 15 10 7 8 13 18 19 21 22 22 21 20
10 10 12 14 16 18 19 21 22 21 20 19 18 17 18 17 16 16 14 12 12 12 10 8 7 6 5 4 3 2 3 3 2 2 1 1 2 3 3 4 5 5 6 7 8 9 9 10 10 10 11 12 12 13 14 14 15 16 17 18 21 23 26 29 28 24 23 25 31 33 26 21 22 21 17 14 8 5 11 16 19 22 22 22 21
11 11 12 13 15 18 19 21 21 20 19 19 18 17 18 17 16 16 14 13 13 13 12 10 8 7 6 5 4 3 3 3 3 2 1 1 1 2 3 4 4 4 6 6 7 8 9 10 11 12 12 12 13 14 15 15 15 17 17 18 21 24 27 30 31 28 27 25 23 27 25 19 19 22 22 19 14 9 7 8 13 18 20 22 23
11 12 12 13 16 18 19 20 20 19 19 18 18 17 17 17 17 16 15 14 13 14 12 11 9 8 6 6 5 4 4 3 2 2 2 2 1 2 2 2 3 3 4 5 6 8 9 10 11 13 13 14 14 14 15 16 16 17 17 19 20 23 25 26 29 29 30 28 21 21 23 20 16 16 18 20 17 13 11 8 10 13 14 16 20
11 12 12 14 16 18 19 19 19 18 18 18 17 16 16 17 17 17 16 15 14 14 14 12 10 9 7 7 6 6 5 4 4 3 3 3 2 2 2 2 3 3 4 5 5 6 8 9 11 13 14 15 16 16 16 16 17 17 17 18 19 21 22 22 26 28 29 29 25 22 24 23 18 14 15 18 17 14 12 10 12 14 13 15 17
11 11 12 13 14 16 17 17 18 18 18 17 17 16 16 17 17 18 17 16 15 15 15 13 11 9 8 8 7 7 6 5 5 4 4 4 4 3 3 4 4 4 4 5 5 6 7 9 10 12 13 15 16 17 17 16 16 17 17 18 18 20 20 20 23 27 29 29 28 27 27 26 24 21 19 19 17 16 14 10 14 17 13 15 16
11 11 12 12 12 13 17 18 19 19 18 18 17 17 16 16 18 18 18 18 16 15 15 14 13 11 10 9 8 8 7 6 5 5 5 4 5 5 4 5 5 5 5 6 6 7 8 9 10 11 13 14 16 17 18 18 17 17 18 18 19 20 19 20 24 28 31 30 30 32 32 29 27 25 24 21 16 16 14 9 15 20 15 14 15
11 11 12 12 12 14 17 19 19 18 17 18 18 17 17 16 17 18 18 18 17 16 16 15 14 13 12 11 10 9 8 7 6 5 5 5 5 5 6 6 6 7 7 8 8 8 9 10 11 12 14 15 16 17 18 19 19 19 19 19 20 21 20 19 23 27 29 31 32 34 35 35 32 28 26 27 24 20 16 12 13 17 18 17 16
10 10 11 12 14 17 18 18 18 17 17 17 17 17 16 16 17 18 18 19 18 17 17 17 15 14 13 12 11 10 9 8 7 6 6 6 6 6 7 7 8 8 9 9 9 10 11 12 12 13 14 15 16 17 18 19 20 20 20 20 20 21 21 21 21 22 25 29 32 33 34 36 37 34 31 30 31 26 21 19 13 10 13 14 14
10 11 11 12 14 17 17 17 17 17 17 17 17 17 17 16 17 18 19 19 19 18 17 17 16 15 14 13 12 11 9 8 7 7 6 6 6 7 8 8 9 9 10 10 11 12 13 13 14 14 15 15 16 17 18 19 19 20 21 21 21 21 21 22 22 22 23 25 29 31 33 33 34 38 37 33 33 30 25 24 19 11 9 8 10
11 11 11 11 13 15 17 17 16 16 16 17 17 17 17 16 16 18 18 19 19 18 17 17 16 15 15 14 13 11 10 9 8 7 7 7 8 8 9 9 10 10 11 11 12 13 14 14 15 15 15 16 16 17 18 19 20 21 21 22 22 22 22 22 23 24 24 25 27 31 35 35 32 36 39 37 35 33 29 27 26 21 14 7 8
12 12 11 11 12 15 16 17 17 16 15 16 16 15 15 15 16 17 18 19 20 19 18 17 17 16 15 14 13 12 11 9 8 8 8 8 9 9 9 10 10 11 11 12 13 14 15 15 16 16 16 16 17 17 18 19 20 21 22 22 23 23 23 23 23 24 24 25 27 29 32 35 33 32 36 37 36 36 33 30 28 27 21 14 10
11 11 11 10 11 15 17 16 17 16 14 14 14 14 14 14 14 16 18 19 20 19 18 18 17 16 15 14 14 12 11 10 9 9 9 9 10 10 11 11 12 12 13 13 14 15 16 16 16 17 17 17 17 18 18 18 20 21 21 22 23 24 25 24 23 23 24 24 26 27 28 30 31 31 33 34 35 37 37 33 30 29 26 24 21
10 10 10 11 12 15 17 17 17 15 13 13 14 13 13 14 14 15 16 18 19 19 19 18 18 16 15 14 14 12 11 10 10 10 10 10 11 11 12 13 13 13 14 14 15 16 17 17 17 18 18 18 18 18 18 18 19 21 22 22 22 24 25 26 25 25 24 24 25 27 28 28 28 29 32 33 33 36 38 37 33 31 30 30 30
10 10 10 11 12 15 17 18 17 14 14 13 13 13 13 13 14 15 16 18 20 20 19 18 17 16 15 15 14 12 11 11 11 11 11 11 12 12 13 13 14 14 14 15 16 17 17 18 19 19 19 19 19 19 19 19 20 20 21 22 22 23 25 26 26 27 26 26 26 27 28 29 28 28 31 34 34 33 35 38 37 34 33 31 31
10 10 10 11 11 14 16 15 13 13 14 13 13 12 13 13 14 15 16 19 20 20 19 18 17 16 16 15 13 12 12 11 11 12 12 12 12 13 14 14 14 15 15 16 17 17 18 18 19 20 20 20 20 20 20 20 21 21 21 22 22 23 25 25 26 27 28 28 28 28 27 28 29 29 31 32 33 31 30 33 35 35 36 34 32
11 11 11 10 11 14 16 14 13 13 13 14 13 12 13 13 14 14 16 18 19 19 19 18 17 16 15 15 13 12 12 11 12 12 12 13 13 13 14 14 15 16 16 17 17 18 18 19 20 21 21 21 21 21 21 22 23 23 23 23 22 23 24 25 26 27 27 28 29 29 28 27 28 30 30 30 31 33 32 31 32 33 36 37 36
12 12 11 10 12 13 13 13 14 14 13 13 12 12 12 13 13 14 16 18 18 18 18 17 17 16 15 14 13 12 12 12 12 12 12 13 13 14 14 15 16 16 17 17 18 18 19 20 22 22 22 23 23 23 23 24 24 24 24 24 24 24 25 25 27 27 27 28 29 29 29 28 29 30 30 30 29 32 34 34 33 32 32 35 39
14 13 13 13 13 12 11 13 15 16 14 13 12 11 12 13 13 14 15 17 18 17 17 17 16 15 15 14 13 12 12 12 12 12 12 13 13 14 14 15 16 17 17 18 18 19 21 22 23 23 24 24 24 24 24 25 26 25 26 25 25 25 25 26 27 28 29 29 29 30 30 29 30 31 30 30 30 30 32 32 33 34 34 33 37
16 16 14 14 12 11 12 15 17 15 14 13 12 11 12 12 13 13 14 16 17 16 17 16 15 15 15 14 12 12 11 11 11 11 12 12 13 14 15 15 16 17 18 19 20 21 22 24 24 25 25 26 26 26 25 26 26 27 27 27 27 27 26 27 27 28 30 30 30 30 30 30 31 32 32 31 30 31 30 30 33 36 35 32 33
16 16 15 14 13 13 14 15 15 14 13 12 12 12 12 13 13 14 14 15 16 16 16 15 15 14 13 12 12 11 10 10 10 11 12 12 13 14 15 16 17 18 19 20 21 23 24 25 26 27 27 27 27 27 27 27 27 27 28 28 28 29 28 28 28 28 29 30 31 31 31 32 32 32 33 32 32 31 29 30 35 36 35 34 33
16 16 16 16 15 14 14 14 14 14 13 12 11 12 13 13 14 14 14 15 15 15 15 15 14 13 12 11 11 10 10 10 11 11 12 13 14 15 15 16 17 18 20 21 22 23 24 25 26 27 27 27 28 28 28 27 27 27 28 29 29 30 29 29 29 29 30 30 32 32 32 34 34 34 34 32 32 32 30 31 36 35 35 35 34
17 17 16 15 15 14 13 13 14 15 14 13 12 12 13 13 13 14 14 15 15 15 15 14 14 13 11 11 10 10 10 11 11 12 13 13 14 15 16 17 18 19 21 22 23 24 25 26 27 27 28 28 28 29 28 28 28 28 27 28 29 29 30 31 30 30 30 31 32 33 33 35 36 36 36 35 35 34 32 32 32 33 35 35 33
17 17 16 15 15 15 13 13 15 15 15 14 13 13 13 13 14 14 15 15 15 15 15 14 13 12 11 10 10 10 10 11 12 12 12 13 14 15 16 17 18 20 22 23 24 25 26 27 28 28 29 29 29 30 30 31 31 30 29 28 28 28 28 30 31 32 31 31 31 32 33 36 38 40 40 40 40 38 36 35 32 32 35 36 36
17 17 17 16 15 14 13 13 14 15 15 14 13 13 13 13 14 15 15 15 15 15 14 13 12 11 10 10 10 10 11 11 12 12 13 14 15 15 16 17 19 21 22 23 24 25 26 27 28 29 29 30 31 32 32 33 34 33 32 31 30 30 30 29 30 31 32 31 31 32 33 34 37 41 42 42 43 43 42 40 37 35 36 37 39
15 17 18 16 14 13 13 13 15 15 15 14 13 12 13 13 14 15 15 15 15 14 13 12 11 10 10 10 10 10 11 11 12 12 13 14 14 15 16 18 20 21 23 23 24 25 26 27 28 29 30 31 33 34 34 35 36 36 35 34 32 32 33 32 31 31 31 30 30 31 32 32 33 37 40 40 41 43 45 45 42 39 38 39 39
16 14 19 14 12 12 14 15 15 15 15 14 14 13 13 14 14 14 14 14 14 13 12 11 10 9 9 9 9 10 11 12 12 12 13 13 14 15 16 18 20 22 23 24 24 25 26 27 28 30 31 32 33 34 35 35 36 37 37 37 35 33 34 35 34 33 32 31 30 30 30 31 31 33 36 37 37 38 41 45 46 43 41 40 42
12 12 18 14 12 12 14 15 14 14 13 13 13 12 12 13 14 14 14 14 13 12 11 10 9 8 8 8 9 10 11 12 12 12 13 14 15 15 16 18 21 23 24 25 26 26 26 27 28 29 30 32 32 33 34 35 35 35 35 36 37 36 37 39 38 37 35 34 32 31 31 31 31 30 31 34 35 35 34 38 43 46 45 42 42
8 15 18 13 12 13 14 14 12 12 11 11 12 12 12 14 14 14 14 13 12 11 10 9 8 8 8 8 9 10 11 12 12 13 14 15 15 15 17 19 21 23 24 25 27 27 28 28 28 29 31 32 33 33 34 35 35 35 35 35 35 34 37 41 42 40 39 37 36 34 34 33 32 30 30 31 33 34 33 31 34 40 44 42 42
10 16 15 13 13 14 15 14 13 12 12 11 11 12 13 14 14 14 13 13 11 10 9 8 8 7 8 8 9 10 11 12 13 14 15 16 15 16 18 19 21 24 25 26 28 28 29 30 29 30 32 34 35 35 35 36 36 36 38 38 35 34 36 41 42 41 40 39 37 36 36 36 34 33 34 34 33 34 34 32 32 33 35 36 38
15 15 13 14 15 14 13 13 12 11 10 10 11 13 14 14 14 14 13 12 11 10 8 7 7 7 7 8 9 11 12 12 13 14 16 16 15 17 19 19 21 25 27 27 29 29 29 30 31 32 33 35 36 35 35 36 36 36 37 36 35 36 37 39 39 40 40 39 39 38 37 37 36 36 39 38 34 34 35 35 33 31 31 31 33
15 15 14 12 11 10 11 11 9 9 9 9 12 14 15 15 15 14 13 12 10 9 7 5 5 6 7 8 10 11 12 13 14 15 16 16 16 18 20 18 19 25 27 28 29 29 29 30 31 32 34 35 36 36 36 37 37 37 38 36 34 35 37 37 37 37 37 38 39 39 40 39 38 37 39 40 38 36 35 36 34 31 30 30 28
14 14 13 12 9 8 9 9 8 9 9 10 13 15 15 15 14 13 12 11 9 7 4 3 4 6 7 9 10 11 12 13 14 15 16 16 17 19 20 19 21 25 28 29 29 29 30 31 32 33 34 35 36 36 36 38 39 39 40 39 36 34 35 36 35 34 35 36 37 38 40 43 44 41 38 40 41 38 35 36 36 32 30 27 25
13 12 12 12 10 8 8 8 8 8 9 12 15 16 15 14 13 12 10 8 6 4 2 3 5 6 8 9 10 11 12 13 14 15 16 16 17 19 19 19 22 26 27 28 28 28 31 32 33 34 34 34 36 36 36 37 38 38 39 39 37 34 33 32 33 34 33 34 35 36 37 41 46 47 45 43 44 41 35 33 34 34 31 24 23
13 12 10 9 10 8 7 7 7 8 10 13 15 16 15 13 12 11 8 6 4 2 1 4 5 6 8 9 10 11 12 12 14 16 16 16 17 18 17 19 23 25 26 27 28 29 31 32 32 32 33 33 34 35 36 36 37 37 37 37 38 37 34 31 32 34 34 34 34 34 35 36 39 44 46 48 50 47 39 35 35 36 32 23 22
11 10 8 9 8 7 6 6 7 8 12 15 16 16 15 13 11 9 7 5 4 1 2 4 5 7 8 9 10 10 12 12 14 16 17 17 17 16 16 20 23 25 25 27 28 28 29 30 30 30 31 32 33 33 34 34 35 35 36 37 39 40 38 34 33 33 34 35 33 32 32 34 36 40 43 46 50 52 45 40 38 36 29 23 25
9 9 11 10 8 8 8 8 8 10 13 16 17 16 14 12 11 8 6 5 4 1 2 4 6 7 8 9 10 11 12 12 13 14 16 17 18 17 18 21 23 23 24 26 26 26 27 28 29 29 29 30 31 31 31 32 32 33 34 36 38 40 40 38 37 35 33 33 32 31 31 32 34 38 41 41 44 48 46 41 38 33 27 25 28
11 11 12 10 8 8 9 8 9 11 14 17 17 16 14 12 10 8 6 5 3 2 2 4 6 7 8 9 10 11 12 12 13 14 15 16 17 17 18 21 21 21 23 24 24 25 26 27 28 28 28 29 29 29 29 29 31 32 33 35 38 39 39 38 38 37 33 32 31 31 32 34 35 36 39 39 40 42 42 38 34 29 26 27 30
9 8 8 8 7 6 7 8 9 12 15 17 17 15 14 12 10 8 6 5 4 2 2 4 6 7 8 10 11 11 12 12 13 14 14 14 16 17 18 21 21 20 21 22 23 24 24 25 26 26 27 29 30 30 29 28 29 30 32 33 35 36 37 38 40 39 36 34 35 35 32 32 33 33 33 35 37 39 39 35 31 28 29 30 32
7 6 5 5 5 6 8 8 10 13 16 16 16 15 13 11 10 8 7 5 3 1 2 3 5 7 8 10 11 12 12 13 14 13 12 13 15 16 18 20 20 20 20 20 22 23 23 24 24 25 27 29 30 29 29 27 27 28 29 30 31 30 31 34 39 42 41 40 43 41 34 27 26 28 28 30 35 37 36 34 31 30 31 32 33
5 5 4 5 5 6 8 9 11 13 16 16 15 14 13 11 10 9 7 6 3 0 1 2 4 6 7 9 11 11 12 13 13 12 11 12 14 16 17 18 19 19 20 20 21 22 22 23 23 24 26 28 29 28 28 27 26 28 31 31 29 27 26 28 35 41 44 44 43 41 35 26 23 25 25 28 32 34 33 33 31 30 30 32 35
5 5 5 6 6 7 9 10 11 13 16 16 15 14 13 11 11 10 8 6 4 1 1 3 4 5 7 10 10 10 11 13 13 12 11 12 13 14 16 17 17 17 18 20 20 20 21 22 23 25 26 26 26 26 26 27 29 33 36 34 30 27 24 22 30 37 40 39 36 32 26 22 22 23 22 23 26 29 30 32 30 27 28 32 34
5 4 4 4 5 7 9 10 11 13 16 17 15 14 13 12 11 9 7 6 4 2 1 2 3 4 7 10 10 9 11 13 13 12 11 11 11 12 13 15 16 16 18 19 20 21 22 23 25 26 25 25 26 27 28 31 35 36 35 31 28 26 22 19 26 33 33 31 28 23 20 20 21 22 21 20 22 24 26 26 25 25 27 30 31
3 3 4 5 5 6 8 10 12 14 16 17 15 13 13 12 11 9 7 5 3 2 1 1 3 5 7 10 10 10 11 13 13 13 12 11 11 12 12 13 17 19 20 20 21 22 24 25 26 27 26 26 27 29 30 32 34 32 28 24 21 21 20 17 22 30 30 26 23 22 21 20 21 21 20 20 21 23 23 22 22 24 28 31 31
3 4 4 5 6 7 9 10 12 14 16 17 15 13 13 13 11 9 7 5 3 1 1 3 5 6 6 8 10 10 12 13 13 13 13 12 12 13 14 15 19 22 22 22 22 22 23 26 27 28 29 28 27 27 27 27 27 25 22 18 16 15 13 11 20 28 28 24 22 20 18 18 20 21 21 22 24 24 25 25 24 24 26 29 31
Wind_Direction
220 209 192 186 185 180 179 178 175 177 177 179 182 182 180 177 174 170 165 163 176 152 90 60 43 43 39 30 21 21 17 7 7 21 2 347 342 319 318 333 330 325 312 296 283 264 257 256 251 249 247 243 240 238 237 236 235 237 236 236 238 243 250 247 238 247 256 242 231 239 232 227 225 216 219 223 224 227 228 231 230 230 231 229 228
227 210 188 186 187 181 180 180 180 182 181 182 187 188 187 187 182 176 170 163 160 145 123 94 59 46 43 35 22 21 22 13 1 6 359 345 339 331 326 328 332 327 313 301 291 281 271 265 256 250 249 249 250 249 248 243 236 234 234 237 239 242 245 243 239 242 250 246 227 226 234 231 229 226 225 224 223 224 225 229 230 231 233 232 229
230 201 182 187 187 182 181 182 184 186 185 185 190 192 190 191 188 182 176 168 159 158 153 134 106 80 72 56 37 32 34 30 27 32 14 351 331 328 329 325 330 321 309 300 287 281 276 276 269 258 251 249 250 250 247 241 237 236 236 239 241 244 246 238 237 237 243 252 238 222 233 227 223 226 229 228 222 221 224 226 226 228 229 229 229
223 185 180 188 189 186 182 183 186 186 188 189 192 195 194 194 193 186 180 175 165 162 159 145 140 119 97 74 59 62 63 56 50 40 4 345 324 302 304 321 322 311 306 301 292 285 275 275 276 269 260 255 252 251 249 241 238 239 236 235 235 240 245 236 230 227 234 251 250 226 231 234 230 222 221 226 225 223 224 225 225 226 225 226 227
207 182 185 190 190 189 186 185 185 186 192 192 192 195 196 196 194 188 182 179 171 165 163 162 167 164 160 166 137 130 91 56 38 17 349 332 323 305 298 308 308 302 303 300 297 295 284 276 274 274 272 267 260 255 254 248 243 243 235 233 231 230 234 236 233 228 230 245 259 254 234 232 246 232 216 217 220 223 226 226 225 225 224 223 225
208 191 187 189 189 189 189 188 186 188 193 192 192 194 195 196 194 188 184 181 175 168 168 173 179 178 184 185 146 122 74 55 42 27 358 335 327 313 295 291 293 294 297 295 294 294 289 285 276 273 273 271 270 263 259 254 250 249 240 235 233 228 227 230 233 230 229 239 251 257 253 254 271 264 242 223 212 214 222 225 224 224 225 225 224
207 200 188 186 187 188 189 189 189 190 192 191 191 192 194 196 192 189 187 183 178 173 169 174 180 175 171 164 136 93 90 95 83 69 21 343 325 312 295 284 281 282 287 290 290 289 287 285 280 276 273 270 273 270 265 259 253 251 245 237 233 230 227 227 228 224 225 233 240 246 252 257 267 273 266 257 222 205 212 221 223 221 221 224 226
195 201 193 187 186 187 188 188 189 190 190 190 190 191 193 195 194 191 190 186 180 177 173 179 189 182 172 172 164 137 122 135 144 149 129 357 323 314 304 294 289 278 278 282 284 286 288 287 283 278 275 272 271 269 266 263 258 255 250 242 236 230 227 230 232 223 218 227 231 234 243 255 263 270 270 264 264 232 211 215 219 219 218 220 224
190 196 194 190 185 186 187 185 188 190 189 189 188 189 190 193 194 192 192 189 182 179 177 180 185 182 183 186 176 158 148 160 168 168 182 203 275 307 307 302 296 282 278 277 277 281 283 285 284 280 277 276 272 269 268 266 264 262 257 250 243 238 235 233 232 225 218 222 223 224 232 245 255 262 267 262 262 270 250 217 207 208 214 219 222
191 194 190 188 184 184 184 183 186 187 187 187 185 186 187 190 192 192 194 192 185 181 180 180 179 182 190 185 177 172 166 176 181 178 201 223 239 272 290 298 298 289 283 278 272 275 277 279 280 280 279 277 274 272 271 270 268 267 264 258 251 247 243 235 231 229 224 222 221 217 221 230 239 246 254 256 255 259 268 260 222 208 211 216 220
193 193 186 185 183 181 182 182 183 182 182 183 183 184 186 188 192 194 196 194 189 185 183 181 180 185 190 181 179 180 176 183 188 190 210 234 250 259 268 277 286 285 282 277 269 268 272 273 274 276 276 274 273 272 272 271 268 267 266 262 257 252 245 235 231 230 226 224 224 219 215 218 224 227 236 248 250 248 256 266 257 246 227 211 214
197 195 183 179 178 178 183 184 181 178 178 181 183 183 186 190 193 196 198 196 192 187 185 183 183 187 188 182 183 184 183 190 193 198 210 228 247 253 263 272 275 273 272 275 272 268 270 270 270 271 272 270 270 270 270 270 270 267 265 263 260 255 247 237 231 229 225 224 226 224 221 219 223 224 228 242 255 255 255 259 264 264 241 218 213
205 198 185 179 178 178 184 185 181 178 181 184 184 184 187 192 195 197 198 196 193 189 186 184 185 187 187 185 187 187 191 197 200 205 212 227 243 247 259 271 276 274 270 272 272 271 271 270 268 267 268 268 268 271 271 269 270 269 266 263 260 259 253 241 235 233 229 226 226 228 228 227 228 227 226 234 252 265 269 270 264 264 256 246 227
215 204 193 187 184 183 184 185 184 183 185 186 186 187 189 192 195 198 199 195 192 191 189 187 188 189 188 188 189 190 193 199 205 210 215 231 245 248 256 264 272 274 271 270 268 267 268 269 269 266 265 266 266 269 270 268 269 269 268 265 261 260 258 250 242 239 236 231 228 229 230 232 234 234 232 233 239 251 261 267 271 270 264 262 251
221 214 205 194 190 190 189 188 189 190 190 189 188 189 190 192 195 197 198 195 193 193 192 190 190 189 189 189 190 193 196 199 207 213 217 230 243 251 256 260 267 271 271 271 268 266 267 266 266 265 263 263 262 263 265 265 266 267 265 264 263 260 258 256 250 243 240 235 232 231 232 234 235 236 236 235 236 240 242 243 253 273 268 265 264
222 219 215 204 193 193 194 193 194 195 194 193 192 190 189 192 194 196 198 196 194 194 194 193 191 189 189 189 190 192 195 200 207 212 217 228 241 250 257 260 263 268 271 271 269 267 266 265 264 264 263 262 261 261 261 262 262 262 261 259 260 260 257 256 253 247 243 238 235 234 234 235 235 235 236 235 235 236 234 235 237 248 263 271 272
223 219 217 209 195 193 197 197 195 195 196 194 190 187 187 188 190 194 197 195 194 195 195 194 192 190 188 188 190 192 194 200 207 212 217 228 242 250 256 260 261 265 268 269 269 267 265 264 264 265 265 263 262 261 260 260 259 258 257 256 256 257 256 255 253 251 247 243 238 235 234 235 234 234 236 235 234 235 236 236 235 236 238 251 273
222 216 214 209 197 195 198 199 197 195 196 191 183 179 181 185 188 191 195 195 194 195 196 195 192 191 190 190 192 193 196 202 209 215 221 230 240 246 253 259 261 263 266 268 269 268 266 264 264 264 264 263 262 262 261 260 259 258 257 256 255 254 254 254 253 251 250 247 243 239 236 235 234 233 234 235 234 234 236 235 233 233 227 227 257
217 212 211 206 200 199 198 201 202 195 187 180 172 169 174 181 186 192 196 196 194 193 195 195 193 192 192 192 193 194 199 206 211 216 223 231 237 243 251 257 259 262 265 268 269 269 268 266 265 265 264 263 262 261 262 262 260 258 258 257 256 253 252 252 252 251 249 246 244 242 239 237 236 234 233 235 234 233 233 233 231 232 229 229 242
209 208 208 203 203 204 200 204 206 186 166 165 165 165 173 179 186 193 198 196 193 193 194 194 194 194 193 192 194 197 202 208 212 218 225 233 238 243 249 254 258 261 263 266 268 269 270 269 268 267 265 265 263 261 261 261 260 259 256 256 256 254 252 251 250 250 249 246 244 242 239 237 236 235 233 234 235 233 232 232 231 229 231 231 235
208 208 207 203 204 207 206 211 208 177 156 164 169 170 177 181 188 193 194 194 192 192 195 195 195 195 193 192 195 199 205 210 215 221 229 236 240 244 249 253 257 260 262 265 268 269 271 272 271 270 268 266 264 262 260 259 259 259 257 257 258 257 255 253 251 250 248 248 246 244 241 237 234 235 235 234 234 233 230 229 230 227 228 229 227
208 209 212 209 205 211 212 208 195 172 166 173 173 176 181 182 187 191 192 194 193 193 195 196 195 196 195 195 197 201 206 212 218 224 231 238 243 246 249 252 256 260 263 265 268 270 271 272 272 271 270 267 264 263 261 259 258 258 257 258 258 258 258 256 254 252 249 248 247 246 244 240 235 234 235 235 234 233 229 227 228 226 226 227 224
210 206 213 217 214 217 212 193 179 179 181 178 175 180 184 184 188 190 191 194 193 194 196 196 197 197 196 197 200 204 210 215 221 228 235 241 246 249 251 254 258 263 266 267 269 270 270 271 272 272 271 270 268 264 262 260 258 257 256 256 255 256 259 258 256 254 251 250 249 247 246 242 238 235 234 235 233 232 233 230 228 226 223 224 223
214 208 207 214 219 218 204 186 189 195 188 181 182 186 184 185 191 191 192 194 193 194 197 197 197 197 197 199 202 207 213 217 224 233 241 246 249 252 255 259 262 267 269 268 269 270 271 272 273 272 272 271 270 267 264 261 259 258 257 257 255 254 256 257 257 256 253 252 252 251 249 244 241 238 235 234 234 234 235 232 228 226 222 221 221
211 212 210 209 212 211 200 198 209 209 195 186 191 191 185 186 191 191 190 192 193 194 196 197 197 196 197 201 205 210 216 221 229 239 246 250 254 257 260 262 265 268 269 270 271 271 272 272 271 272 271 270 269 267 265 263 260 258 256 256 256 254 254 254 255 256 255 253 252 252 251 248 244 241 237 234 234 234 233 232 229 228 226 221 218
213 210 209 207 205 206 210 215 219 217 203 191 190 190 185 183 187 188 187 189 192 192 194 197 197 197 200 204 209 215 221 228 235 244 251 255 258 261 264 265 268 270 271 272 273 273 271 270 270 270 270 270 269 267 266 264 262 260 257 256 254 254 254 253 253 254 254 253 252 251 250 250 247 244 241 237 234 233 231 230 228 227 227 222 217
218 213 206 203 204 209 218 221 218 216 207 193 188 186 180 178 181 183 184 186 188 190 193 198 199 199 203 208 213 219 226 234 242 250 255 258 262 265 267 269 272 273 274 275 275 273 272 270 269 269 269 269 268 267 266 265 262 260 259 257 255 254 253 253 252 253 253 253 252 250 249 249 248 246 243 240 237 235 231 227 226 226 227 225 221
215 214 210 205 204 209 218 216 207 205 200 190 186 183 176 175 178 180 182 183 185 189 193 196 198 202 208 214 218 224 231 240 248 254 258 260 265 268 270 274 275 276 276 277 276 274 273 271 270 269 269 268 267 267 265 263 262 260 259 258 257 256 255 254 253 252 252 253 252 251 248 246 246 247 245 243 240 237 234 230 228 226 225 225 225
228 214 213 211 207 206 209 204 197 195 189 181 181 179 173 174 177 179 180 180 182 187 191 194 198 203 210 216 221 227 236 245 250 254 258 262 267 272 274 276 277 277 278 278 276 275 273 272 271 269 268 267 266 265 263 261 261 260 260 259 258 257 256 255 254 253 252 253 252 251 249 247 246 246 246 246 244 241 238 235 231 227 223 222 226
259 232 216 212 213 209 200 193 192 190 182 177 179 179 175 177 178 178 179 179 181 185 190 195 200 204 210 217 224 232 239 246 250 254 260 265 270 274 276 278 280 280 281 280 278 277 275 273 272 270 268 267 265 264 262 262 262 262 262 262 261 261 259 257 256 255 253 253 253 252 250 249 248 247 247 248 248 247 244 242 237 232 226 223 225
270 254 230 213 213 210 193 186 189 187 181 178 180 181 180 180 179 178 179 179 181 186 191 196 202 207 212 219 228 238 244 248 252 257 263 268 272 276 278 281 284 284 284 283 281 279 277 275 274 271 269 266 265 263 263 263 264 265 264 263 263 263 263 262 260 258 256 254 254 254 253 250 248 247 246 247 249 249 249 247 244 239 233 226 224
248 256 247 223 205 198 187 185 186 182 179 177 178 183 184 181 180 179 180 181 182 186 191 196 205 211 217 226 237 246 250 253 258 261 266 272 275 278 281 284 286 288 288 287 285 282 280 277 275 273 270 268 266 264 265 264 264 264 265 265 265 262 261 261 260 260 259 256 254 254 254 252 249 246 244 243 246 248 249 250 248 244 239 233 229
230 248 252 225 190 189 188 184 181 179 181 181 182 188 188 183 182 181 181 182 181 186 193 199 207 216 226 237 245 252 256 258 262 266 271 275 276 279 283 287 290 291 291 290 288 285 282 279 277 275 272 270 268 267 266 266 265 264 263 264 264 262 259 258 258 258 259 258 255 253 253 253 251 248 245 242 242 245 247 248 249 247 243 237 234
222 234 242 216 184 187 182 176 178 179 180 181 181 187 187 182 182 181 181 182 183 190 198 203 212 223 236 246 250 256 261 263 266 269 273 274 276 279 285 290 292 292 292 292 291 288 285 282 279 277 276 273 271 269 269 268 267 267 265 263 261 259 257 257 256 256 255 255 255 253 252 252 251 250 246 241 240 241 243 244 245 245 242 238 235
227 224 221 198 175 174 166 167 174 168 166 172 176 182 183 181 181 180 180 184 190 195 202 207 217 230 243 251 254 258 263 266 268 271 273 274 277 282 288 294 295 293 292 293 292 290 287 284 281 279 278 276 274 272 272 270 268 267 268 267 264 259 257 257 255 254 253 252 251 252 252 251 252 253 249 242 239 239 239 240 238 237 237 234 232
224 216 196 173 167 166 162 167 170 163 168 179 180 182 182 180 181 180 182 188 195 201 207 211 219 234 248 256 261 264 267 270 270 273 275 277 281 286 293 298 297 294 293 293 293 291 288 285 283 281 279 278 275 274 272 271 269 266 266 266 264 261 258 257 255 253 251 250 248 248 250 250 252 256 254 248 243 239 238 239 238 234 230 228 228
207 192 166 161 166 162 160 163 164 169 182 188 184 183 182 180 181 183 186 190 195 204 215 217 222 241 256 263 267 269 271 272 273 276 278 280 286 292 296 301 299 296 296 296 295 293 290 287 286 283 281 279 277 276 274 272 270 267 264 262 260 259 257 256 255 252 250 249 247 245 245 247 250 252 251 249 247 242 238 239 240 238 231 227 224
182 159 145 153 159 156 157 160 166 177 189 192 187 182 180 181 183 187 191 193 198 206 217 223 234 257 270 273 275 274 273 274 277 280 282 286 293 296 298 303 303 299 298 299 297 295 292 290 288 286 284 282 280 278 276 274 271 268 266 263 259 259 258 255 254 253 249 248 246 244 242 243 246 248 247 246 247 248 243 237 239 241 236 231 222
147 144 147 152 157 159 158 160 170 182 192 195 186 180 181 183 185 190 194 198 205 208 215 239 264 278 282 282 281 278 275 277 279 282 287 292 297 299 300 304 303 300 300 300 299 296 294 292 291 289 287 285 282 280 277 274 272 268 266 263 260 258 257 255 254 253 249 247 246 244 241 241 242 245 247 244 244 250 249 240 237 239 238 232 217
147 157 155 152 161 172 172 171 179 188 194 191 182 179 183 184 185 190 195 199 203 200 220 279 286 286 283 281 279 277 277 279 283 288 292 296 298 301 306 309 305 302 302 301 299 298 296 295 293 291 289 287 284 282 278 275 272 269 265 262 258 255 253 253 251 250 249 246 245 243 241 241 240 242 245 244 241 245 251 246 237 235 237 229 207
153 150 153 165 178 186 186 181 185 191 190 184 181 181 183 183 184 188 191 188 178 175 249 285 287 283 282 281 281 283 285 287 290 294 295 296 299 304 311 313 308 304 302 301 300 300 298 296 295 294 292 290 287 283 280 277 273 271 268 265 261 256 252 249 246 245 245 244 242 241 241 240 239 239 241 243 240 240 247 251 243 236 235 223 196
117 124 168 193 184 174 179 183 184 188 187 183 181 181 181 182 181 179 178 168 152 169 262 278 283 281 284 287 286 288 291 290 291 296 299 300 304 313 317 312 307 305 303 303 303 302 300 299 298 296 294 293 290 285 281 278 275 273 271 269 265 262 257 248 240 240 242 240 240 242 241 239 238 236 238 241 239 237 242 250 248 239 232 216 193
133 165 194 198 183 175 182 187 184 187 187 182 180 181 180 177 174 170 164 151 144 198 269 282 284 283 286 288 288 292 294 293 295 299 302 303 307 315 317 310 307 306 305 304 304 304 303 301 299 298 297 295 295 291 285 281 279 277 276 274 270 267 262 249 237 235 238 238 239 241 242 240 236 233 234 236 236 235 238 244 244 236 222 204 189
183 187 181 182 192 187 176 177 184 188 185 180 179 180 177 172 169 167 165 158 156 193 265 281 283 287 294 295 298 301 299 300 304 304 304 307 311 314 313 309 308 306 304 304 305 304 305 303 300 299 298 297 298 296 291 287 283 281 280 278 273 270 265 251 236 231 234 236 238 239 240 239 236 233 232 231 230 231 233 234 233 222 203 188 181
181 174 164 176 195 184 170 175 184 186 181 178 179 177 170 170 170 166 166 168 162 181 257 284 295 306 313 310 308 308 306 308 310 307 308 314 315 314 314 312 310 305 302 305 306 305 304 302 299 299 299 300 301 300 296 292 288 285 283 281 277 273 266 252 237 230 229 232 236 239 240 238 234 232 229 225 223 223 222 221 218 205 188 180 178
169 161 161 183 190 180 181 182 181 183 179 175 177 176 169 168 169 163 164 166 152 184 255 294 321 326 326 321 317 316 316 315 310 307 313 319 316 314 317 316 310 304 302 305 308 307 306 303 300 301 302 303 304 303 300 298 295 292 289 286 285 282 272 254 238 230 229 230 234 240 248 247 232 224 222 218 216 213 209 208 206 194 181 178 177
154 142 154 190 192 184 188 183 177 180 177 170 175 180 173 165 161 158 160 156 135 154 278 340 347 338 336 333 328 324 320 316 313 313 317 319 317 317 320 319 313 306 303 305 309 311 311 308 307 305 305 305 306 305 304 302 301 299 297 294 293 293 283 258 236 228 227 229 233 242 252 250 228 215 213 209 204 199 194 193 192 184 178 179 180
134 135 163 190 190 185 186 180 174 176 173 168 170 174 168 161 158 157 156 144 126 107 15 17 3 351 349 343 334 329 326 324 323 322 319 317 318 318 318 318 315 307 301 303 307 308 308 311 313 312 309 308 308 307 306 305 303 300 298 296 295 299 294 261 231 223 222 225 230 236 236 224 203 192 187 184 182 180 178 178 177 175 176 177 175
141 146 160 174 188 192 185 174 173 178 173 166 168 173 169 162 159 159 153 140 135 144 99 26 2 356 359 349 335 330 336 335 329 323 320 320 323 323 317 315 314 309 304 305 304 301 303 310 315 316 315 312 309 309 310 310 307 301 298 296 292 294 295 267 231 217 211 210 211 207 196 184 174 166 162 159 159 159 161 163 162 162 165 164 161
159 165 169 165 177 193 184 170 170 176 173 167 170 176 172 163 160 160 153 145 156 188 191 1 345 348 357 349 334 330 338 337 331 328 324 319 324 330 329 325 324 320 316 315 312 308 312 315 316 320 324 321 315 316 319 318 313 306 302 299 290 286 289 268 224 203 192 187 185 180 173 167 161 155 151 150 149 147 146 147 148 150 154 155 155
210 206 193 172 169 182 186 175 169 172 172 170 168 167 162 160 164 164 157 157 178 224 335 348 345 346 344 331 325 330 337 335 332 331 326 319 323 331 334 335 335 330 326 324 321 320 323 326 326 329 333 332 329 330 333 331 325 317 311 304 293 287 283 244 198 183 174 169 168 165 163 162 159 155 152 151 150 148 145 143 142 144 149 151 151